This is the latest recevied weather packets stored in our database for station/object K8RRT. If no packets are shown the sender has not sent any weather packets the latest 10 day(s).
| Time | Temp. | Humidity | Pressure | Rain* | Wind** | Luminosity | Snow |
|---|---|---|---|---|---|---|---|
| 1777480601 | 17.78° C | 94% | 1004.7 hPa | 0 mm | - | 233 W/m² | - |
| 1777480298 | 17.78° C | 94% | 1005 hPa | 1.78 mm | - | 278 W/m² | - |
| 1777479994 | 17.78° C | 94% | 1005.3 hPa | 1.78 mm | - | 200 W/m² | - |
| 1777479691 | 17.78° C | 94% | 1005.5 hPa | 0 mm | - | 186 W/m² | - |
| 1777479389 | 17.78° C | 94% | 1005.6 hPa | 1.27 mm | - | 171 W/m² | - |
| 1777479085 | 17.78° C | 92% | 1005.4 hPa | 6.1 mm | - | 146 W/m² | - |
| 1777478782 | 17.78° C | 90% | 1005.5 hPa | 4.83 mm | - | 114 W/m² | - |
| 1777478478 | 18.33° C | 89% | 1005.5 hPa | 1.78 mm | - | 115 W/m² | - |
| 1777478176 | 18.33° C | 88% | 1005.6 hPa | 0 mm | - | 49 W/m² | - |
| 1777477871 | 18.33° C | 87% | 1005.4 hPa | 0 mm | - | 98 W/m² | - |
| 1777477567 | 18.33° C | 87% | 1005.4 hPa | 0 mm | - | 119 W/m² | - |
| 1777477264 | 18.89° C | 86% | 1005.5 hPa | 0 mm | - | 167 W/m² | - |
| 1777476960 | 18.89° C | 87% | 1005.6 hPa | 0 mm | - | 219 W/m² | - |
| 1777476658 | 18.89° C | 87% | 1005.9 hPa | 0 mm | - | 193 W/m² | - |
| 1777476354 | 18.89° C | 86% | 1005.8 hPa | 0 mm | - | 195 W/m² | - |
| 1777476050 | 18.89° C | 87% | 1005.9 hPa | 0 mm | - | 203 W/m² | - |
| 1777475746 | 18.89° C | 87% | 1005.8 hPa | 0 mm | - | 180 W/m² | - |
| 1777475443 | 18.89° C | 88% | 1006 hPa | 0 mm | - | 225 W/m² | - |
| 1777475138 | 18.33° C | 88% | 1005.8 hPa | 0 mm | - | 328 W/m² | - |
| 1777474835 | 18.33° C | 88% | 1006.1 hPa | 0 mm | - | 195 W/m² | - |
| 1777474530 | 18.89° C | 89% | 1006.1 hPa | 0 mm | - | 200 W/m² | - |
| 1777474227 | 18.89° C | 89% | 1005.9 hPa | 0 mm | - | 256 W/m² | - |
| 1777473925 | 18.33° C | 89% | 1006 hPa | 0 mm | - | 286 W/m² | - |
| 1777473622 | 18.33° C | 91% | 1006.2 hPa | 0 mm | - | 232 W/m² | - |
| 1777473318 | 18.33° C | 92% | 1006.4 hPa | 0 mm | - | 253 W/m² | - |
* Rain latest hour (hover to see other rain measurements)
** Current wind speed in m/s (hover to see current wind gust speed)